[[{"header":{"parameterUnit":"m.s-1","parameterCategory":1,"la1":30.2991,"la2":30.254,"lo1":-89.0895,"lo2":-89.0444,"dy":0.0017,"dx":0.0017,"nx":28,"ny":28,"refTime":"2025-09-17T03:00:00:Z","depth":0,"parameterNumber":2,"parameterNumberName":"U-component_of_WINDS"},"data":[0,0,0,0,0,0,0,0,0,0,0,0,0,0,0,0,0,0,0,0,0,0,0,0,0,0,0,0,0,0,0,0,0,0,0,0,0,0,0,0,0,0,0,0,0,0,0,0,0,0,0,0,0,0,0,0,0,0,-1.3833,-1.3833,0,-1.3858,-1.3859,-1.3859,-1.3832,-1.3831,-1.383,-1.3829,-1.3858,-1.386,-1.3861,0,0,0,0,0,0,0,0,0,0,0,0,0,-1.3767,-1.3768,-1.3833,-1.3833,-1.3834,-1.3858,-1.3859,-1.3859,-1.3832,-1.3831,-1.383,-1.3828,-1.3857,-1.386,-1.3862,0,0,0,0,0,0,0,0,0,0,0,0,0,-1.3794,-1.3769,-1.3833,-1.3823,-1.3823,-1.3858,-1.3859,-1.3859,-1.3832,-1.3831,-1.3829,-1.3828,-1.3857,-1.3859,-1.3862,-1.3909,0,0,-1.387,-1.3871,0,0,0,0,0,0,0,0,-1.3793,-1.3797,-1.3824,-1.3824,-1.3823,-1.384,-1.3846,-1.3876,-1.3833,-1.3829,-1.3829,-1.3827,-1.3854,-1.3856,-1.3865,-1.3911,-1.3912,-1.387,-1.3872,-1.3873,-1.3874,0,0,0,0,0,0,0,-1.3791,-1.3796,-1.3843,-1.3825,-1.3824,-1.3819,-1.3821,-1.3852,-1.385,-1.3829,-1.3827,-1.383,-1.3853,-1.3862,-1.3865,-1.3913,-1.387,-1.3872,-1.3874,-1.3875,-1.4003,-1.4004,0,0,0,0,0,0,-1.379,-1.3794,-1.3842,-1.3844,-1.3804,-1.3822,-1.3824,-1.3836,-1.3849,-1.385,-1.3832,-1.3829,-1.3859,-1.3862,-1.3866,-1.3924,-1.3873,-1.3875,-1.3877,-1.4001,-1.4003,-1.4005,0,0,0,0,0,0,-1.3788,-1.3794,-1.3841,-1.3819,-1.3824,-1.3824,-1.3839,-1.3838,-1.3847,-1.3851,-1.3851,-1.3841,-1.3857,-1.3862,-1.3899,-1.3925,-1.3877,-1.3879,-1.3999,-1.4001,-1.4004,-1.404,0,0,0,0,0,0,-1.3786,-1.3794,-1.381,-1.3819,-1.3825,-1.3873,-1.384,-1.3839,-1.3851,-1.3848,-1.386,-1.3861,-1.3857,-1.3896,-1.3902,-1.3928,-1.3881,-1.3996,-1.4,-1.4003,-1.4037,-1.4044,-1.405,0,0,0,0,0,-1.3784,-1.382,-1.3811,-1.3817,-1.3846,-1.3874,-1.3878,-1.3871,-1.3853,-1.3871,-1.3874,-1.386,-1.3921,-1.39,-1.3907,-1.3933,-1.3995,-1.3999,-1.4003,-1.4034,-1.4042,-1.405,0,0,0,0,0,0,-1.3814,-1.382,-1.3811,-1.385,-1.3862,-1.3869,-1.3891,-1.388,-1.3898,-1.3894,-1.3887,-1.389,-1.393,-1.3935,-1.3911,-1.3982,-1.3955,-1.3961,-1.3976,-1.3985,-1.3991,-1.3989,-1.3883,0,0,0,0,0,-1.3825,-1.3846,-1.3851,-1.3885,-1.3891,-1.3891,-1.3902,-1.3897,-1.3909,-1.3914,-1.392,-1.3933,-1.3956,-1.3971,-1.3991,-1.4038,-1.4042,-1.406,-1.4067,-1.4072,-1.4077,-1.4105,-1.4114,-1.4018,-1.4018,-1.4018,0,0,-1.3848,-1.3855,-1.3868,-1.3891,-1.39,-1.3923,-1.3895,-1.392,-1.3938,-1.3918,-1.3953,-1.3959,-1.3974,-1.4016,-1.4035,-1.4022,-1.4105,-1.4077,-1.4082,-1.4084,-1.411,-1.4119,-1.4127,-1.4021,-1.4021,-1.402,0,0,-1.3903,-1.3909,-1.3939,-1.3948,-1.3961,-1.3961,-1.3968,-1.3978,-1.3981,-1.4016,-1.4002,-1.4025,-1.4063,-1.4074,-1.4085,-1.4148,-1.4137,-1.4155,-1.419,-1.4217,-1.4224,-1.4231,-1.4255,-1.4263,-1.416,-1.416,-1.4161,0,-1.393,-1.3963,-1.3956,-1.3983,-1.3995,-1.3978,-1.4009,-1.4019,-1.4039,-1.4048,-1.4033,-1.4083,-1.4091,-1.4137,-1.4153,-1.4162,-1.4172,-1.4153,-1.4223,-1.423,-1.4236,-1.4259,-1.4268,-1.4163,-1.4162,-1.4162,-1.4162,0,-1.3998,-1.4021,-1.4044,-1.4063,-1.4078,-1.4107,-1.4106,-1.4122,-1.4116,-1.4118,-1.4157,-1.4167,-1.419,-1.4201,-1.4195,-1.4248,-1.4239,-1.4224,-1.4197,-1.4248,-1.4269,-1.4278,-1.4166,-1.4165,-1.4164,-1.4164,0,0,-1.407,-1.4086,-1.4094,-1.4104,-1.4118,-1.4137,-1.4168,-1.419,-1.4205,-1.422,-1.4246,-1.4281,-1.4267,-1.428,-1.4276,-1.43,-1.4352,-1.4282,-1.4283,-1.4296,-1.4412,-1.4424,-1.4434,-1.4344,-1.4346,-1.4347,-1.4411,0,-1.4125,-1.4175,-1.4171,-1.4219,-1.4243,-1.4229,-1.4255,-1.4268,-1.4272,-1.4294,-1.4299,-1.4323,-1.4303,-1.4311,-1.4334,-1.434,-1.4375,-1.4336,-1.4371,-1.4372,-1.4367,-1.4445,-1.4456,-1.4516,-1.442,-1.4421,-1.4422,0,-1.4196,-1.4213,-1.4264,-1.4277,-1.4287,-1.4311,-1.4332,-1.4353,-1.4369,-1.437,-1.4386,-1.4379,-1.4412,-1.4385,-1.4432,-1.4405,-1.442,-1.4425,-1.4428,-1.4431,-1.44,-1.4451,-1.4535,-1.4544,-1.4435,-1.4434,-1.4433,0,-1.4245,-1.4281,-1.4317,-1.4325,-1.4341,-1.4359,-1.4367,-1.4381,-1.4395,-1.4415,-1.4425,-1.4449,-1.4463,-1.4483,-1.4483,-1.4463,-1.4532,-1.4504,-1.4535,-1.4535,-1.455,-1.4549,-1.4638,-1.4559,-1.4558,-1.4558,-1.4558,0,-1.4307,-1.4339,-1.4339,-1.4361,-1.4398,-1.4394,-1.443,-1.4437,-1.445,-1.4475,-1.4465,-1.4488,-1.4488,-1.4513,-1.4514,-1.4554,-1.456,-1.4563,-1.4563,-1.4564,-1.4564,-1.4574,-1.457,-1.4561,-1.456,-1.456,-1.4559,0,-1.4368,-1.4368,-1.4407,-1.4419,-1.4423,-1.445,-1.4462,-1.4484,-1.4488,-1.4519,-1.4527,-1.4533,-1.4562,-1.4565,-1.4599,-1.46,-1.4649,-1.4644,-1.4643,-1.4642,-1.4674,-1.4671,-1.4773,-1.4787,-1.4698,-1.4698,-1.4699,0,-1.4407,-1.4432,-1.4447,-1.4463,-1.4471,-1.4496,-1.4511,-1.451,-1.4526,-1.4548,-1.4568,-1.4597,-1.4619,-1.4667,-1.4676,-1.4703,-1.4699,-1.4733,-1.4703,-1.4704,-1.4701,-1.47,-1.4703,-1.4739,-1.474,-1.474,-1.4741,0,-1.4479,-1.4478,-1.45,-1.4523,-1.4541,-1.4559,-1.4576,-1.459,-1.4591,-1.4611,-1.464,-1.4657,-1.4693,-1.4722,-1.4749,-1.4759,-1.4752,-1.4751,-1.476,-1.4761,-1.476,-1.4762,-1.4659,-1.4748,-1.4747,-1.4747,-1.4746,-1.4746,-1.4531,-1.4552,-1.4567,-1.4592,-1.4605,-1.4622,-1.4644,-1.4651,-1.4675,-1.4703,-1.4701,-1.4734,-1.4753,-1.4788,-1.4801,-1.4828,-1.4817,-1.483,-1.4833,-1.4836,-1.484,-1.4755,-1.4833,-1.4833,-1.4833,-1.4833,-1.4833,0,-1.4602,-1.4611,-1.4635,-1.4659,-1.468,-1.4669,-1.4689,-1.4707,-1.4736,-1.4753,-1.4776,-1.4811,-1.484,-1.4852,-1.4881,-1.4901,-1.4899,-1.4909,-1.4908,-1.4911,-1.4848,-1.4837,-1.4911,-1.4911,-1.4911,-1.4911,-1.4911,-1.4911,-1.4642,-1.4679,-1.4681,-1.4725,-1.4735,-1.4766,-1.4778,-1.4795,-1.4809,-1.4848,-1.4872,-1.488,-1.4896,-1.4926,-1.4954,-1.4957,-1.4968,-1.4981,-1.4982,-1.4923,-1.4915,-1.4907,-1.4898,-1.4983,-1.4983,-1.5043,-1.5044,-1.5044]},{"header":{"parameterUnit":"m.s-1","parameterCategory":1,"la1":30.2991,"la2":30.254,"lo1":-89.0895,"lo2":-89.0444,"dy":0.0017,"dx":0.0017,"nx":28,"ny":28,"refTime":"2025-09-17T03:00:00:Z","depth":0,"parameterNumber":3,"parameterNumberName":"V-component_of_WINDS"},"data":[0,0,0,0,0,0,0,0,0,0,0,0,0,0,0,0,0,0,0,0,0,0,0,0,0,0,0,0,0,0,0,0,0,0,0,0,0,0,0,0,0,0,0,0,0,0,0,0,0,0,0,0,0,0,0,0,0,0,3.4959,3.4959,0,3.5003,3.5003,3.5004,3.506,3.5061,3.5062,3.5063,3.5104,3.5104,3.5105,0,0,0,0,0,0,0,0,0,0,0,0,0,3.4922,3.4922,3.4959,3.496,3.496,3.5002,3.5003,3.5004,3.506,3.5061,3.5062,3.5063,3.5104,3.5104,3.5105,0,0,0,0,0,0,0,0,0,0,0,0,0,3.4949,3.4922,3.4959,3.4993,3.4997,3.5002,3.5003,3.5004,3.506,3.5061,3.5063,3.5064,3.5104,3.5104,3.5105,3.5079,0,0,3.5106,3.5106,0,0,0,0,0,0,0,0,3.4947,3.495,3.4988,3.4991,3.4995,3.5027,3.5005,3.5029,3.5059,3.5036,3.5063,3.5065,3.5077,3.508,3.5085,3.5081,3.5083,3.5106,3.5106,3.5106,3.5106,0,0,0,0,0,0,0,3.4945,3.4948,3.4976,3.4988,3.4993,3.5006,3.5011,3.501,3.5048,3.5038,3.5042,3.5047,3.508,3.5084,3.5086,3.5083,3.5106,3.5106,3.5106,3.5106,3.5059,3.5058,0,0,0,0,0,0,3.4939,3.4947,3.4975,3.4977,3.4974,3.5005,3.5011,3.5015,3.5048,3.5055,3.5045,3.5049,3.5083,3.5086,3.5088,3.5059,3.5106,3.5106,3.5107,3.5061,3.5059,3.5057,0,0,0,0,0,0,3.4938,3.4941,3.4973,3.4963,3.4968,3.5004,3.5009,3.5016,3.5021,3.5054,3.5061,3.5044,3.5084,3.5087,3.5081,3.5061,3.5107,3.5107,3.5062,3.506,3.5058,3.5001,0,0,0,0,0,0,3.4936,3.494,3.4931,3.4963,3.4969,3.4966,3.5008,3.5015,3.5021,3.5027,3.5054,3.506,3.5086,3.508,3.5081,3.5062,3.5107,3.5064,3.5061,3.5059,3.5005,3.4997,3.499,0,0,0,0,0,3.4935,3.4913,3.493,3.4933,3.4958,3.4964,3.4968,3.4999,3.502,3.501,3.5032,3.5059,3.5064,3.5079,3.5081,3.5062,3.5066,3.5062,3.5059,3.5008,3.4998,3.4991,0,0,0,0,0,0,3.4876,3.4917,3.4937,3.4925,3.4941,3.4974,3.4963,3.4988,3.4998,3.5002,3.5039,3.5045,3.5033,3.5047,3.5063,3.5038,3.5069,3.5065,3.5029,3.502,3.5013,3.5009,3.5108,0,0,0,0,0,3.4863,3.4865,3.49,3.4886,3.4893,3.4927,3.493,3.4953,3.4971,3.4977,3.4998,3.5013,3.5018,3.502,3.5027,3.5008,3.5014,3.4996,3.4988,3.4982,3.4979,3.4968,3.496,3.5046,3.5046,3.5047,0,0,3.4833,3.4856,3.4854,3.4875,3.489,3.489,3.4932,3.4931,3.4931,3.4977,3.4972,3.4988,3.5007,3.4993,3.4989,3.5005,3.4957,3.4978,3.4973,3.4973,3.4964,3.4956,3.4949,3.5044,3.5045,3.5045,0,0,3.4779,3.4797,3.4787,3.4801,3.4824,3.4847,3.4844,3.4874,3.4886,3.4882,3.4916,3.4917,3.4925,3.4937,3.4944,3.4895,3.492,3.4896,3.4858,3.4848,3.4841,3.4835,3.4816,3.4809,3.4893,3.4893,3.4893,0,3.4739,3.4742,3.4778,3.4775,3.4782,3.4825,3.4814,3.4826,3.4849,3.4852,3.4871,3.4881,3.4897,3.4887,3.4875,3.488,3.4877,3.4892,3.4839,3.4834,3.4829,3.4811,3.4804,3.489,3.489,3.489,3.4891,0,3.4691,3.4692,3.4681,3.4703,3.471,3.4702,3.4736,3.4738,3.4761,3.4781,3.4776,3.4797,3.4808,3.4808,3.4829,3.48,3.4809,3.4833,3.4864,3.4817,3.4801,3.4794,3.4885,3.4886,3.4887,3.4888,0,0,3.4599,3.4643,3.4637,3.4648,3.4676,3.4678,3.4672,3.4684,3.4684,3.4699,3.4694,3.4701,3.4723,3.4731,3.4755,3.4746,3.4704,3.4771,3.4772,3.4756,3.4671,3.4651,3.4643,3.4721,3.472,3.4719,3.4669,0,3.4549,3.4543,3.4576,3.456,3.4561,3.4603,3.4598,3.4614,3.4634,3.4637,3.4658,3.4661,3.4691,3.4696,3.4689,3.471,3.4687,3.4715,3.4716,3.4715,3.4707,3.4635,3.4614,3.4565,3.4663,3.4662,3.4661,0,3.449,3.4502,3.4487,3.4516,3.4518,3.4513,3.4526,3.4529,3.4549,3.4563,3.4572,3.46,3.4596,3.4627,3.4621,3.4639,3.4641,3.4652,3.4651,3.465,3.4684,3.463,3.4551,3.4542,3.4652,3.4653,3.4653,0,3.4422,3.4436,3.4428,3.4436,3.447,3.4465,3.4479,3.45,3.4505,3.4517,3.452,3.4531,3.4536,3.4543,3.4572,3.4592,3.4562,3.4596,3.4572,3.4571,3.4562,3.4562,3.4479,3.4567,3.4567,3.4567,3.4567,0,3.4362,3.4351,3.4398,3.4393,3.4382,3.4419,3.4406,3.4424,3.4442,3.4441,3.4478,3.4475,3.4515,3.4517,3.454,3.453,3.4533,3.4543,3.4549,3.4539,3.4537,3.4539,3.4542,3.4565,3.4566,3.4566,3.4566,0,3.4284,3.4316,3.431,3.4343,3.4351,3.4341,3.4369,3.4365,3.4388,3.4385,3.4387,3.4421,3.4425,3.4456,3.4466,3.4482,3.4462,3.4476,3.4456,3.4459,3.4433,3.4435,3.4348,3.4338,3.4433,3.4432,3.4432,0,3.4242,3.4234,3.4267,3.4269,3.4282,3.4285,3.429,3.4327,3.4331,3.4353,3.4346,3.4353,3.4361,3.4365,3.439,3.4398,3.4411,3.438,3.4412,3.4401,3.4408,3.4407,3.4406,3.4372,3.4371,3.437,3.4369,0,3.4164,3.418,3.4187,3.42,3.4205,3.4217,3.423,3.423,3.427,3.4272,3.4278,3.4283,3.4295,3.4301,3.4313,3.4327,3.4353,3.4359,3.4354,3.4342,3.433,3.4334,3.4435,3.436,3.4361,3.4362,3.4362,3.4363,3.4102,3.4096,3.4119,3.4125,3.4139,3.4151,3.4149,3.4172,3.4177,3.4189,3.4211,3.4212,3.4231,3.4251,3.4263,3.4264,3.428,3.4272,3.427,3.4267,3.4261,3.4332,3.4266,3.4267,3.4267,3.4267,3.4267,0,3.4024,3.404,3.4046,3.4064,3.4069,3.4096,3.4113,3.4114,3.4116,3.4132,3.4139,3.4144,3.415,3.4176,3.4185,3.4181,3.4193,3.4182,3.4181,3.4183,3.4247,3.425,3.4171,3.4171,3.4171,3.4171,3.4171,3.4171,3.3984,3.3976,3.3995,3.3994,3.4011,3.4014,3.402,3.4031,3.4044,3.4049,3.4054,3.4072,3.4092,3.4102,3.4109,3.4116,3.4117,3.41,3.4112,3.417,3.4179,3.4188,3.4191,3.4101,3.4101,3.4048,3.4047,3.4047]}]]